Flag for U.S.A. Weather past 2 weeks in Brownsville, Texas, U.S.A.

Now
57 °F

Clear.


Feels Like: 56 °F
Forecast: 56 / 76 °F
Wind: 7 mph from Northwest

Location: Brownsville / South Padre Island International Airport

Current Time: Mar 27, 2015 at 6:05:32 AM

Latest Report: Mar 27, 2015 at 4:53 AM


Visibility: 10 mi

Pressure: 30.18 "Hg

Humidity: 81%

Dew point: 51 °F

Location of BrownsvilleLocation

Historic Weather in Brownsville — Graph

°F

Brownsville temperature yesterday

Maximum temperature yesterday: 81 °F (at 1:53 PM)
Minimum temperature yesterday: 61 °F (at 11:53 PM)
Average temperature yesterday: 71 °F

Past Weeks' High & Low Weather Summary

 TemperatureHumidityPressure
High82 °F (Mar 20, 3:53 PM)100% (Mar 13, 4:53 AM)30.24 "Hg (Mar 13, 4:53 AM)
Low52 °F (Mar 12, 6:53 AM)48% (Mar 13, 2:53 PM)29.82 "Hg (Mar 26, 5:53 AM)
Average69 °F87%30.03 "Hg
* Reported Mar 12 4:53 AM — Mar 27 4:53 AM, Brownsville, Weather by CustomWeather, © 2015

Note: Actual official high and low records may vary slightly from our data, if they occured in-between our weather recording intervals... More about our weather records

Advertising

Brownsville weather history for previous 24 hours

 ConditionsComfort  
Time TempWeatherWind HumidityBarometerVisibility
4:53 AM
Fri, Mar 27
57 °FClear.7 mph81%30.18 "Hg10 mi
3:53 AM59 °FClear.8 mph78%30.18 "Hg10 mi
2:53 AM60 °FClear.9 mph78%30.17 "Hg10 mi
1:53 AM60 °FPassing clouds.10 mph78%30.16 "Hg10 mi
12:53 AM60 °FPassing clouds.7 mph78%30.14 "Hg10 mi
11:53 PM
Thu, Mar 26
61 °FClear.7 mph72%30.13 "Hg10 mi
10:53 PM62 °FClear.8 mph70%30.11 "Hg10 mi
9:53 PM64 °FPassing clouds.13 mph63%30.09 "Hg10 mi
8:53 PM67 °FClear.16 mph63%30.04 "Hg10 mi
7:53 PM68 °FPassing clouds.9 mph65%30.03 "Hg10 mi
6:53 PM68 °FOvercast.10 mph73%30.00 "Hg9 mi
5:53 PM68 °FOvercast.13 mph70%29.99 "Hg10 mi
4:53 PM67 °FOvercast.16 mph81%29.96 "Hg9 mi
3:53 PM69 °FOvercast.15 mph84%29.95 "Hg8 mi
2:54 PM69 °FRain. Fog.17 mph93%29.93 "Hg3 mi
1:53 PM81 °FBroken clouds.10 mph74%29.92 "Hg8 mi
12:53 PM79 °FPartly sunny.5 mph79%29.93 "Hg6 mi
11:53 AM75 °FFog.7 mph94%29.95 "Hg2 mi
10:53 AM73 °FFog.6 mph100%29.94 "Hg2 mi
9:53 AM73 °FFog.5 mph100%29.90 "Hg2 mi
8:53 AM73 °FFog.6 mph97%29.86 "Hg1 mi
7:53 AM72 °FFog.6 mph97%29.84 "Hg0 mi
7:02 AM72 °FFog.12 mph97%29.84 "Hg2 mi
6:53 AM72 °FFog.9 mph100%29.83 "Hg2 mi
Weather by CustomWeather, © 2015

See weather overviewHow to use our weather pages